This is the latest recevied weather packets stored in our database for station/object KLEMETTI. If no packets are shown the sender has not sent any weather packets the latest 10 day(s).
| Time | Temp. | Humidity | Pressure | Rain* | Wind** | Luminosity | Snow |
|---|---|---|---|---|---|---|---|
| 1777559219 | 12.78° C | 57% | 1020.8 hPa | 0 mm | - | - | - |
| 1777558018 | 12.22° C | 58% | 1020.8 hPa | 0 mm | - | - | - |
| 1777556819 | 12.22° C | 58% | 1021 hPa | 0 mm | - | - | - |
| 1777555618 | 13.33° C | 56% | 1021 hPa | 0 mm | - | - | - |
| 1777554418 | 13.33° C | 56% | 1021 hPa | 0 mm | - | - | - |
| 1777553218 | 12.78° C | 56% | 1021 hPa | 0 mm | - | - | - |
| 1777552019 | 12.78° C | 57% | 1021.1 hPa | 0 mm | - | - | - |
| 1777550818 | 12.22° C | 58% | 1021 hPa | 0 mm | - | - | - |
| 1777549619 | 12.78° C | 59% | 1021 hPa | 0 mm | - | - | - |
| 1777548418 | 12.22° C | 59% | 1021 hPa | 0 mm | - | - | - |
| 1777547218 | 13.33° C | 56% | 1020.9 hPa | 0 mm | - | - | - |
| 1777546018 | 14.44° C | 52% | 1020.8 hPa | 0 mm | - | - | - |
| 1777544819 | 13.89° C | 52% | 1020.9 hPa | 0 mm | - | - | - |
| 1777543618 | 13.33° C | 54% | 1020.9 hPa | 0 mm | - | - | - |
| 1777542418 | 13.33° C | 55% | 1020.9 hPa | 0 mm | - | - | - |
| 1777541218 | 12.78° C | 60% | 1020.9 hPa | 0 mm | - | - | - |
| 1777540018 | 12.78° C | 59% | 1020.9 hPa | 0 mm | - | - | - |
| 1777538817 | 12.22° C | 59% | 1020.8 hPa | 0 mm | - | - | - |
| 1777537618 | 11.11° C | 64% | 1020.8 hPa | 0 mm | - | - | - |
| 1777536418 | 10.56° C | 68% | 1020.8 hPa | 0 mm | - | - | - |
| 1777535218 | 10° C | 68% | 1020.8 hPa | 0 mm | - | - | - |
| 1777534017 | 10° C | 70% | 1020.7 hPa | 0 mm | - | - | - |
| 1777532818 | 9.44° C | 72% | 1020.6 hPa | 0 mm | - | - | - |
| 1777531618 | 10° C | 70% | 1020.6 hPa | 0 mm | - | - | - |
| 1777530418 | 10° C | 70% | 1020.5 hPa | 0 mm | - | - | - |
* Rain latest hour (hover to see other rain measurements)
** Current wind speed in m/s (hover to see current wind gust speed)